QPF
0.03 0.03 0.03 0.04 0.05 0.05 0.06 0.07 0.04 0.03 0.03 0.03 0.04 0.04 0.04 0.03 0.04 0.04 0.03 0.04 0.04 0.04 0.04 0.04 0.05 0.05 0.05 0.05 0.04 0.04 0.04 0.05 0.05 0.03 0.04 0.05 0.08 0.06 0.06 0.05 0.03 0.02 0.01
0.04 0.04 0.04 0.04 0.05 0.05 0.06 0.07 0.06 0.05 0.05 0.05 0.05 0.05 0.05 0.04 0.04 0.04 0.04 0.04 0.05 0.04 0.04 0.04 0.04 0.04 0.04 0.04 0.04 0.04 0.05 0.05 0.05 0.04 0.04 0.06 0.07 0.06 0.05 0.04 0.03 0.03 0.02
0.03 0.03 0.04 0.04 0.05 0.07 0.09 0.11 0.10 0.08 0.07 0.05 0.05 0.05 0.05 0.04 0.02 0.02 0.02 0.03 0.04 0.04 0.04 0.04 0.05 0.06 0.05 0.05 0.06 0.05 0.06 0.07 0.06 0.05 0.04 0.06 0.05 0.05 0.05 0.06 0.04 0.03 0.03
0.04 0.04 0.05 0.05 0.05 0.06 0.07 0.08 0.08 0.06 0.04 0.03 0.03 0.02 0.02 0.02 0.02 0.02 0.02 0.03 0.03 0.04 0.04 0.03 0.04 0.05 0.05 0.07 0.07 0.07 0.08 0.07 0.07 0.06 0.04 0.05 0.04 0.04 0.06 0.06 0.04 0.02 0.03
0.04 0.04 0.04 0.03 0.02 0.03 0.04 0.05 0.04 0.04 0.02 0.02 0.02 0.02 0.02 0.01 0.01 0.02 0.03 0.03 0.03 0.03 0.02 0.02 0.03 0.05 0.06 0.07 0.06 0.06 0.07 0.07 0.07 0.06 0.05 0.04 0.03 0.03 0.05 0.05 0.05 0.05 0.04
0.05 0.04 0.05 0.05 0.04 0.03 0.03 0.03 0.04 0.04 0.04 0.02 0.02 0.02 0.02 0.01 0.02 0.02 0.02 0.02 0.02 0.02 0.02 0.03 0.03 0.05 0.05 0.05 0.05 0.05 0.05 0.04 0.04 0.04 0.04 0.05 0.04 0.04 0.05 0.06 0.05 0.05 0.04
0.09 0.11 0.11 0.09 0.09 0.08 0.06 0.06 0.05 0.04 0.05 0.05 0.03 0.03 0.03 0.03 0.03 0.03 0.03 0.02 0.02 0.02 0.02 0.03 0.02 0.03 0.04 0.03 0.03 0.04 0.04 0.04 0.04 0.04 0.03 0.03 0.05 0.05 0.06 0.05 0.05 0.04 0.04
0.07 0.09 0.12 0.15 0.15 0.14 0.13 0.11 0.11 0.11 0.11 0.12 0.11 0.08 0.08 0.07 0.07 0.07 0.07 0.06 0.05 0.05 0.04 0.04 0.04 0.04 0.03 0.03 0.03 0.03 0.03 0.03 0.04 0.04 0.03 0.03 0.04 0.05 0.05 0.05 0.04 0.04 0.03
0.05 0.05 0.07 0.09 0.13 0.16 0.16 0.16 0.16 0.16 0.17 0.19 0.19 0.18 0.15 0.14 0.13 0.11 0.09 0.07 0.07 0.06 0.06 0.05 0.04 0.04 0.04 0.04 0.04 0.03 0.03 0.03 0.04 0.05 0.04 0.04 0.04 0.04 0.05 0.04 0.03 0.03 0.03
0.06 0.05 0.06 0.07 0.07 0.09 0.11 0.14 0.18 0.21 0.23 0.25 0.28 0.32 0.30 0.24 0.18 0.11 0.09 0.07 0.06 0.04 0.04 0.04 0.04 0.04 0.05 0.05 0.04 0.04 0.04 0.04 0.06 0.06 0.06 0.06 0.06 0.06 0.05 0.04 0.03 0.03 0.02
0.07 0.06 0.06 0.07 0.07 0.08 0.10 0.12 0.14 0.17 0.18 0.19 0.21 0.21 0.20 0.18 0.13 0.08 0.06 0.04 0.03 0.03 0.04 0.03 0.04 0.05 0.05 0.05 0.05 0.05 0.05 0.05 0.06 0.06 0.06 0.04 0.05 0.05 0.05 0.05 0.04 0.04 0.03
0.07 0.09 0.10 0.11 0.12 0.12 0.12 0.12 0.12 0.13 0.14 0.16 0.18 0.18 0.17 0.15 0.11 0.07 0.05 0.03 0.02 0.02 0.02 0.02 0.03 0.03 0.03 0.04 0.05 0.04 0.04 0.04 0.04 0.04 0.04 0.03 0.03 0.03 0.04 0.05 0.06 0.06 0.04
0.12 0.10 0.13 0.18 0.21 0.19 0.17 0.17 0.17 0.15 0.15 0.18 0.21 0.20 0.17 0.14 0.12 0.08 0.06 0.04 0.02 0.02 0.02 0.02 0.02 0.02 0.02 0.03 0.03 0.03 0.04 0.04 0.04 0.03 0.03 0.02 0.03 0.03 0.03 0.04 0.04 0.05 0.05
0.09 0.09 0.09 0.14 0.18 0.18 0.16 0.15 0.13 0.12 0.13 0.14 0.15 0.14 0.15 0.13 0.10 0.07 0.06 0.04 0.03 0.02 0.01 0.02 0.02 0.02 0.02 0.02 0.03 0.02 0.02 0.02 0.03 0.03 0.03 0.03 0.04 0.04 0.04 0.05 0.05 0.05 0.04
0.06 0.06 0.06 0.08 0.09 0.10 0.12 0.11 0.11 0.11 0.09 0.09 0.11 0.12 0.12 0.11 0.08 0.07 0.06 0.05 0.05 0.04 0.03 0.03 0.02 0.02 0.02 0.02 0.02 0.02 0.01 0.01 0.01 0.02 0.02 0.03 0.04 0.05 0.04 0.05 0.06 0.08 0.06
0.05 0.07 0.07 0.07 0.06 0.06 0.05 0.05 0.06 0.07 0.06 0.05 0.06 0.07 0.10 0.10 0.08 0.08 0.07 0.07 0.08 0.07 0.05 0.04 0.03 0.03 0.03 0.03 0.02 0.02 0.02 0.01 0.02 0.02 0.02 0.03 0.04 0.05 0.05 0.06 0.07 0.07 0.06
0.04 0.04 0.06 0.06 0.06 0.05 0.04 0.03 0.03 0.03 0.03 0.03 0.03 0.03 0.04 0.07 0.08 0.06 0.05 0.05 0.06 0.07 0.07 0.08 0.06 0.04 0.04 0.04 0.03 0.03 0.03 0.03 0.03 0.03 0.03 0.04 0.04 0.05 0.06 0.06 0.07 0.06 0.05
0.02 0.03 0.03 0.04 0.05 0.05 0.05 0.04 0.04 0.03 0.03 0.02 0.02 0.02 0.02 0.03 0.07 0.06 0.04 0.03 0.03 0.03 0.03 0.06 0.08 0.06 0.03 0.03 0.03 0.04 0.04 0.05 0.04 0.04 0.04 0.04 0.03 0.03 0.04 0.04 0.05 0.05 0.05
0.03 0.04 0.05 0.05 0.04 0.05 0.06 0.05 0.05 0.04 0.03 0.03 0.02 0.02 0.02 0.03 0.05 0.07 0.05 0.03 0.01 0.01 0.02 0.02 0.03 0.03 0.03 0.03 0.03 0.03 0.02 0.02 0.02 0.02 0.02 0.02 0.03 0.03 0.03 0.03 0.03 0.04 0.06
0.03 0.04 0.05 0.04 0.04 0.04 0.06 0.06 0.05 0.06 0.05 0.04 0.03 0.02 0.03 0.04 0.04 0.06 0.05 0.03 0.02 0.02 0.02 0.02 0.03 0.03 0.04 0.05 0.05 0.05 0.04 0.03 0.03 0.02 0.01 0.01 0.02 0.03 0.03 0.03 0.04 0.04 0.04
0.03 0.03 0.04 0.04 0.04 0.05 0.06 0.08 0.08 0.08 0.07 0.05 0.04 0.05 0.05 0.05 0.05 0.05 0.06 0.05 0.04 0.04 0.04 0.04 0.05 0.05 0.06 0.07 0.07 0.06 0.04 0.03 0.03 0.02 0.02 0.02 0.02 0.03 0.03 0.03 0.04 0.04 0.03
0.04 0.04 0.05 0.05 0.05 0.05 0.06 0.09 0.12 0.11 0.09 0.08 0.08 0.06 0.06 0.05 0.05 0.05 0.04 0.05 0.05 0.05 0.05 0.05 0.05 0.06 0.06 0.07 0.06 0.06 0.04 0.03 0.03 0.03 0.02 0.02 0.02 0.03 0.03 0.03 0.03 0.04 0.04
0.06 0.06 0.06 0.05 0.05 0.04 0.06 0.12 0.14 0.14 0.12 0.10 0.09 0.08 0.05 0.04 0.05 0.06 0.05 0.04 0.04 0.04 0.05 0.05 0.05 0.06 0.06 0.05 0.04 0.05 0.05 0.04 0.04 0.03 0.02 0.02 0.02 0.03 0.02 0.02 0.03 0.03 0.04
0.04 0.05 0.07 0.07 0.06 0.06 0.05 0.07 0.10 0.11 0.11 0.10 0.08 0.07 0.06 0.04 0.04 0.04 0.05 0.05 0.05 0.05 0.05 0.06 0.05 0.04 0.04 0.03 0.03 0.03 0.03 0.03 0.02 0.02 0.02 0.02 0.02 0.03 0.03 0.03 0.02 0.03 0.04
0.05 0.05 0.08 0.09 0.08 0.08 0.07 0.05 0.05 0.07 0.10 0.09 0.07 0.07 0.06 0.05 0.05 0.05 0.05 0.06 0.06 0.05 0.05 0.04 0.03 0.03 0.02 0.02 0.02 0.02 0.02 0.02 0.02 0.02 0.02 0.02 0.02 0.02 0.03 0.03 0.03 0.03 0.03
0.09 0.07 0.07 0.09 0.09 0.09 0.09 0.07 0.06 0.06 0.08 0.09 0.09 0.08 0.07 0.07 0.07 0.07 0.06 0.04 0.04 0.03 0.03 0.03 0.03 0.03 0.02 0.02 0.02 0.02 0.02 0.02 0.02 0.02 0.02 0.02 0.02 0.02 0.02 0.02 0.02 0.03 0.04
MSLP
1003.07 1003.47 1003.99 1004.55 1005.07 1005.51 1005.85 1006.09 1006.27 1006.41 1006.55 1006.73 1006.96 1007.24 1007.55 1007.88 1008.20 1008.50 1008.77 1009.03 1009.29 1009.57 1009.88 1010.23 1010.62 1011.03 1011.44 1011.83 1012.15 1012.39 1012.54 1012.57 1012.50 1012.34 1012.12 1011.85 1011.57 1011.31 1011.09 1010.92 1010.83 1010.80 1010.84
1002.65 1002.93 1003.35 1003.83 1004.32 1004.75 1005.12 1005.41 1005.64 1005.84 1006.04 1006.26 1006.52 1006.81 1007.11 1007.42 1007.72 1008.00 1008.25 1008.48 1008.71 1008.95 1009.22 1009.54 1009.89 1010.27 1010.67 1011.06 1011.41 1011.70 1011.91 1012.02 1012.05 1011.99 1011.85 1011.67 1011.45 1011.23 1011.03 1010.86 1010.74 1010.68 1010.67
1002.41 1002.53 1002.80 1003.16 1003.55 1003.92 1004.26 1004.56 1004.83 1005.08 1005.33 1005.61 1005.91 1006.23 1006.56 1006.88 1007.19 1007.46 1007.71 1007.93 1008.14 1008.36 1008.60 1008.89 1009.20 1009.56 1009.93 1010.31 1010.66 1010.97 1011.23 1011.41 1011.51 1011.54 1011.50 1011.40 1011.27 1011.12 1010.96 1010.82 1010.71 1010.64 1010.60
1002.36 1002.31 1002.40 1002.58 1002.82 1003.08 1003.35 1003.62 1003.89 1004.16 1004.46 1004.79 1005.14 1005.51 1005.88 1006.24 1006.57 1006.86 1007.12 1007.35 1007.56 1007.78 1008.01 1008.26 1008.55 1008.87 1009.21 1009.56 1009.91 1010.22 1010.49 1010.71 1010.88 1010.98 1011.02 1011.02 1010.97 1010.90 1010.82 1010.74 1010.67 1010.61 1010.57
1002.53 1002.29 1002.17 1002.16 1002.21 1002.33 1002.49 1002.68 1002.92 1003.20 1003.53 1003.89 1004.29 1004.70 1005.12 1005.51 1005.88 1006.20 1006.48 1006.73 1006.96 1007.18 1007.41 1007.65 1007.92 1008.21 1008.51 1008.83 1009.14 1009.43 1009.70 1009.93 1010.13 1010.28 1010.39 1010.47 1010.52 1010.55 1010.56 1010.56 1010.55 1010.55 1010.54
1002.88 1002.48 1002.17 1001.96 1001.82 1001.77 1001.80 1001.90 1002.08 1002.33 1002.65 1003.04 1003.46 1003.90 1004.34 1004.76 1005.15 1005.49 1005.80 1006.07 1006.32 1006.55 1006.79 1007.03 1007.28 1007.55 1007.83 1008.10 1008.37 1008.63 1008.87 1009.09 1009.29 1009.48 1009.64 1009.78 1009.91 1010.03 1010.14 1010.24 1010.32 1010.39 1010.45
1003.41 1002.88 1002.41 1002.03 1001.72 1001.52 1001.41 1001.40 1001.50 1001.71 1002.00 1002.36 1002.78 1003.21 1003.65 1004.06 1004.45 1004.79 1005.10 1005.39 1005.65 1005.90 1006.15 1006.40 1006.65 1006.91 1007.16 1007.40 1007.63 1007.85 1008.05 1008.25 1008.44 1008.62 1008.81 1009.01 1009.20 1009.40 1009.59 1009.78 1009.96 1010.12 1010.25
1004.07 1003.46 1002.90 1002.39 1001.97 1001.63 1001.41 1001.31 1001.33 1001.47 1001.70 1002.01 1002.36 1002.75 1003.13 1003.49 1003.84 1004.15 1004.44 1004.71 1004.98 1005.24 1005.51 1005.77 1006.04 1006.30 1006.54 1006.76 1006.96 1007.14 1007.31 1007.48 1007.64 1007.82 1008.02 1008.23 1008.47 1008.72 1008.99 1009.25 1009.51 1009.75 1009.97
1004.80 1004.18 1003.58 1003.03 1002.53 1002.13 1001.84 1001.66 1001.60 1001.66 1001.81 1002.02 1002.29 1002.57 1002.85 1003.12 1003.38 1003.62 1003.85 1004.09 1004.35 1004.61 1004.89 1005.18 1005.47 1005.74 1005.99 1006.21 1006.41 1006.57 1006.72 1006.86 1007.00 1007.16 1007.36 1007.58 1007.83 1008.11 1008.42 1008.73 1009.04 1009.34 1009.62
1005.53 1004.96 1004.39 1003.84 1003.35 1002.93 1002.61 1002.39 1002.27 1002.25 1002.30 1002.41 1002.54 1002.68 1002.83 1002.96 1003.09 1003.23 1003.38 1003.57 1003.79 1004.04 1004.34 1004.65 1004.97 1005.27 1005.55 1005.80 1006.00 1006.17 1006.32 1006.45 1006.59 1006.74 1006.92 1007.13 1007.39 1007.67 1007.98 1008.31 1008.65 1008.98 1009.30
1006.20 1005.71 1005.21 1004.73 1004.29 1003.91 1003.60 1003.37 1003.22 1003.13 1003.08 1003.06 1003.05 1003.04 1003.02 1003.00 1002.98 1002.99 1003.05 1003.16 1003.34 1003.58 1003.88 1004.21 1004.56 1004.91 1005.24 1005.53 1005.77 1005.97 1006.13 1006.28 1006.42 1006.57 1006.75 1006.96 1007.20 1007.47 1007.77 1008.08 1008.41 1008.74 1009.07
1006.73 1006.34 1005.95 1005.57 1005.22 1004.91 1004.65 1004.44 1004.26 1004.12 1003.99 1003.85 1003.70 1003.53 1003.35 1003.17 1003.01 1002.90 1002.85 1002.89 1003.02 1003.24 1003.54 1003.90 1004.28 1004.68 1005.05 1005.39 1005.69 1005.94 1006.15 1006.33 1006.50 1006.67 1006.85 1007.05 1007.28 1007.52 1007.79 1008.08 1008.37 1008.68 1008.98
1007.12 1006.82 1006.53 1006.26 1006.01 1005.78 1005.58 1005.41 1005.24 1005.06 1004.86 1004.63 1004.36 1004.06 1003.74 1003.43 1003.15 1002.93 1002.80 1002.77 1002.86 1003.07 1003.36 1003.73 1004.15 1004.58 1005.00 1005.40 1005.75 1006.06 1006.32 1006.56 1006.77 1006.97 1007.17 1007.38 1007.59 1007.82 1008.05 1008.30 1008.55 1008.81 1009.07
1007.35 1007.12 1006.91 1006.73 1006.57 1006.42 1006.29 1006.15 1005.99 1005.80 1005.56 1005.26 1004.91 1004.52 1004.11 1003.71 1003.36 1003.07 1002.88 1002.82 1002.88 1003.07 1003.36 1003.74 1004.17 1004.62 1005.08 1005.52 1005.92 1006.28 1006.60 1006.89 1007.16 1007.40 1007.63 1007.85 1008.07 1008.28 1008.49 1008.69 1008.90 1009.10 1009.31
1007.46 1007.26 1007.11 1006.98 1006.88 1006.80 1006.71 1006.60 1006.46 1006.26 1006.00 1005.68 1005.29 1004.87 1004.42 1003.99 1003.61 1003.30 1003.11 1003.03 1003.09 1003.26 1003.55 1003.92 1004.35 1004.81 1005.28 1005.74 1006.17 1006.57 1006.94 1007.28 1007.59 1007.88 1008.14 1008.39 1008.61 1008.82 1009.01 1009.18 1009.34 1009.50 1009.66
1007.51 1007.32 1007.17 1007.06 1006.99 1006.93 1006.87 1006.77 1006.64 1006.45 1006.20 1005.88 1005.50 1005.09 1004.66 1004.26 1003.91 1003.64 1003.47 1003.41 1003.48 1003.66 1003.94 1004.29 1004.70 1005.14 1005.59 1006.04 1006.48 1006.89 1007.28 1007.65 1008.00 1008.33 1008.63 1008.90 1009.14 1009.34 1009.52 1009.67 1009.80 1009.92 1010.03
1007.57 1007.35 1007.19 1007.07 1006.99 1006.92 1006.85 1006.76 1006.63 1006.45 1006.21 1005.92 1005.58 1005.23 1004.87 1004.54 1004.26 1004.06 1003.95 1003.94 1004.04 1004.22 1004.49 1004.81 1005.19 1005.58 1006.00 1006.41 1006.82 1007.22 1007.62 1008.00 1008.36 1008.71 1009.03 1009.32 1009.57 1009.78 1009.95 1010.08 1010.19 1010.28 1010.36
1007.68 1007.43 1007.23 1007.08 1006.96 1006.87 1006.77 1006.66 1006.52 1006.35 1006.13 1005.89 1005.61 1005.34 1005.07 1004.84 1004.67 1004.56 1004.53 1004.57 1004.70 1004.89 1005.14 1005.43 1005.75 1006.09 1006.45 1006.81 1007.17 1007.54 1007.92 1008.28 1008.65 1009.00 1009.33 1009.62 1009.88 1010.08 1010.25 1010.37 1010.46 1010.53 1010.58
1007.86 1007.57 1007.34 1007.15 1006.99 1006.85 1006.71 1006.57 1006.42 1006.24 1006.05 1005.85 1005.65 1005.45 1005.29 1005.17 1005.09 1005.08 1005.12 1005.23 1005.38 1005.58 1005.81 1006.06 1006.32 1006.60 1006.89 1007.18 1007.50 1007.82 1008.16 1008.51 1008.85 1009.20 1009.52 1009.80 1010.05 1010.25 1010.40 1010.51 1010.58 1010.64 1010.68
1008.06 1007.77 1007.51 1007.28 1007.08 1006.90 1006.72 1006.54 1006.37 1006.19 1006.01 1005.84 1005.70 1005.58 1005.50 1005.47 1005.49 1005.55 1005.66 1005.80 1005.97 1006.16 1006.36 1006.57 1006.78 1007.00 1007.22 1007.47 1007.73 1008.01 1008.31 1008.64 1008.97 1009.29 1009.60 1009.87 1010.10 1010.29 1010.43 1010.52 1010.58 1010.62 1010.64
1008.24 1007.95 1007.68 1007.44 1007.21 1006.99 1006.78 1006.57 1006.36 1006.17 1006.00 1005.86 1005.75 1005.68 1005.66 1005.69 1005.77 1005.88 1006.02 1006.18 1006.36 1006.53 1006.70 1006.86 1007.03 1007.20 1007.37 1007.57 1007.80 1008.06 1008.34 1008.65 1008.96 1009.27 1009.57 1009.83 1010.05 1010.22 1010.34 1010.42 1010.47 1010.49 1010.51
1008.30 1008.04 1007.79 1007.54 1007.30 1007.06 1006.82 1006.59 1006.36 1006.15 1005.97 1005.83 1005.74 1005.69 1005.70 1005.75 1005.85 1005.97 1006.12 1006.28 1006.43 1006.57 1006.71 1006.84 1006.97 1007.10 1007.25 1007.44 1007.65 1007.90 1008.19 1008.50 1008.81 1009.13 1009.42 1009.68 1009.89 1010.06 1010.17 1010.24 1010.28 1010.29 1010.31
1008.17 1007.95 1007.73 1007.50 1007.27 1007.02 1006.77 1006.51 1006.27 1006.04 1005.85 1005.69 1005.59 1005.54 1005.54 1005.58 1005.66 1005.77 1005.89 1006.01 1006.13 1006.24 1006.34 1006.43 1006.54 1006.66 1006.81 1007.00 1007.23 1007.50 1007.81 1008.15 1008.49 1008.83 1009.14 1009.41 1009.63 1009.79 1009.91 1009.98 1010.02 1010.04 1010.06
1007.83 1007.65 1007.46 1007.25 1007.03 1006.79 1006.53 1006.27 1006.01 1005.77 1005.55 1005.38 1005.25 1005.17 1005.14 1005.15 1005.19 1005.25 1005.33 1005.40 1005.47 1005.53 1005.60 1005.67 1005.76 1005.89 1006.05 1006.26 1006.53 1006.84 1007.20 1007.58 1007.96 1008.34 1008.68 1008.98 1009.23 1009.41 1009.55 1009.63 1009.69 1009.72 1009.76
1007.26 1007.11 1006.96 1006.78 1006.57 1006.34 1006.09 1005.82 1005.55 1005.29 1005.06 1004.86 1004.70 1004.59 1004.52 1004.48 1004.46 1004.47 1004.48 1004.50 1004.51 1004.53 1004.57 1004.62 1004.71 1004.84 1005.02 1005.27 1005.58 1005.94 1006.35 1006.78 1007.22 1007.65 1008.04 1008.38 1008.66 1008.89 1009.05 1009.17 1009.26 1009.33 1009.38
1006.53 1006.41 1006.28 1006.12 1005.92 1005.70 1005.45 1005.18 1004.90 1004.63 1004.38 1004.16 1003.97 1003.82 1003.71 1003.62 1003.55 1003.50 1003.45 1003.41 1003.38 1003.36 1003.36 1003.39 1003.47 1003.61 1003.82 1004.10 1004.44 1004.85 1005.31 1005.79 1006.28 1006.75 1007.19 1007.58 1007.91 1008.19 1008.40 1008.57 1008.70 1008.81 1008.91
Thickness
5795 5793 5790 5787 5784 5780 5778 5775 5773 5772 5770 5768 5766 5764 5761 5759 5757 5754 5752 5750 5748 5746 5744 5743 5742 5742 5740 5739 5738 5736 5734 5731 5725 5727 5729 5729 5728 5727 5725 5724 5722 5720 5719
5793 5790 5786 5784 5780 5777 5774 5773 5771 5769 5767 5765 5764 5761 5758 5756 5754 5751 5749 5748 5745 5743 5741 5739 5738 5738 5737 5736 5735 5733 5731 5730 5725 5721 5722 5722 5723 5722 5721 5719 5718 5716 5714
5789 5785 5781 5779 5777 5773 5771 5769 5767 5765 5763 5762 5761 5758 5755 5753 5751 5749 5747 5745 5743 5741 5739 5737 5735 5734 5732 5732 5732 5731 5730 5729 5725 5720 5719 5718 5718 5717 5715 5714 5713 5711 5710
5784 5780 5776 5775 5773 5770 5768 5766 5763 5761 5759 5758 5757 5755 5753 5750 5748 5745 5743 5741 5739 5738 5737 5735 5734 5732 5730 5729 5728 5728 5727 5724 5721 5717 5715 5714 5713 5713 5710 5707 5705 5705 5704
5779 5775 5772 5770 5768 5766 5763 5761 5759 5757 5756 5755 5752 5750 5748 5746 5744 5741 5739 5737 5735 5734 5733 5732 5731 5731 5730 5728 5726 5724 5722 5719 5715 5713 5710 5709 5707 5706 5704 5704 5701 5699 5697
5773 5769 5767 5763 5760 5759 5758 5756 5753 5751 5750 5749 5747 5745 5742 5742 5740 5738 5736 5733 5731 5729 5727 5727 5727 5727 5726 5725 5724 5723 5720 5716 5712 5709 5706 5704 5704 5703 5702 5699 5695 5691 5689
5764 5761 5758 5755 5753 5751 5750 5748 5746 5744 5743 5742 5741 5739 5737 5736 5735 5733 5731 5729 5726 5724 5723 5722 5722 5723 5722 5721 5719 5718 5716 5715 5713 5709 5704 5703 5701 5701 5698 5694 5691 5689 5687
5755 5752 5750 5747 5745 5743 5742 5741 5739 5737 5735 5733 5732 5732 5730 5729 5727 5725 5724 5722 5720 5719 5718 5717 5716 5716 5716 5714 5713 5711 5710 5709 5709 5706 5704 5703 5702 5700 5697 5693 5689 5686 5683
5745 5743 5743 5741 5739 5737 5734 5733 5732 5730 5727 5726 5725 5724 5722 5721 5720 5718 5716 5713 5712 5711 5711 5711 5711 5709 5709 5708 5705 5703 5702 5702 5703 5702 5701 5699 5697 5695 5693 5688 5683 5678 5675
5737 5737 5736 5734 5732 5729 5727 5725 5724 5722 5721 5719 5717 5715 5713 5712 5711 5710 5708 5705 5703 5702 5702 5703 5703 5702 5702 5700 5697 5696 5694 5694 5694 5694 5693 5692 5690 5689 5687 5684 5680 5675 5671
5732 5730 5727 5726 5723 5721 5718 5716 5714 5713 5711 5709 5707 5705 5704 5704 5703 5701 5700 5698 5696 5694 5694 5694 5694 5693 5693 5692 5690 5689 5689 5687 5686 5685 5684 5683 5682 5681 5680 5678 5677 5674 5670
5723 5720 5718 5716 5714 5713 5709 5707 5704 5702 5699 5698 5697 5695 5695 5695 5694 5693 5691 5690 5690 5687 5686 5686 5686 5685 5684 5683 5682 5682 5681 5679 5676 5675 5674 5674 5674 5673 5674 5673 5672 5671 5671
5711 5708 5707 5706 5704 5703 5700 5696 5693 5691 5689 5689 5689 5686 5685 5684 5684 5684 5682 5680 5680 5679 5679 5679 5677 5676 5674 5674 5674 5673 5671 5669 5667 5666 5666 5667 5668 5667 5666 5665 5664 5663 5662
5699 5698 5697 5695 5694 5693 5691 5689 5686 5683 5682 5681 5680 5678 5676 5675 5674 5674 5672 5671 5670 5669 5668 5668 5666 5665 5664 5664 5664 5664 5662 5661 5659 5658 5658 5659 5659 5658 5657 5656 5654 5653 5651
5689 5688 5687 5686 5685 5683 5683 5681 5679 5679 5678 5676 5675 5673 5670 5667 5669 5668 5666 5663 5662 5660 5657 5655 5653 5652 5651 5652 5653 5653 5652 5651 5650 5650 5649 5649 5648 5648 5648 5647 5645 5643 5641
5678 5678 5677 5676 5675 5674 5672 5671 5672 5671 5671 5671 5670 5667 5666 5666 5663 5660 5658 5656 5654 5651 5647 5644 5643 5643 5642 5642 5642 5643 5643 5642 5641 5640 5640 5640 5639 5639 5638 5638 5637 5635 5634
5670 5669 5669 5667 5666 5665 5665 5663 5661 5661 5661 5661 5660 5659 5658 5658 5655 5652 5649 5646 5642 5640 5636 5635 5635 5635 5634 5634 5633 5633 5633 5633 5632 5630 5630 5630 5630 5629 5628 5628 5627 5626 5626
5661 5661 5660 5659 5659 5658 5658 5656 5655 5653 5652 5651 5651 5651 5650 5649 5646 5643 5640 5636 5632 5631 5629 5628 5627 5627 5625 5624 5624 5624 5624 5623 5622 5621 5620 5620 5620 5619 5619 5618 5618 5618 5617
5652 5651 5651 5651 5651 5651 5650 5649 5649 5648 5646 5644 5643 5642 5641 5639 5638 5634 5631 5629 5627 5625 5623 5621 5620 5618 5617 5616 5615 5615 5614 5613 5612 5611 5610 5610 5610 5610 5610 5610 5610 5609 5608
5643 5644 5644 5642 5642 5642 5642 5642 5641 5639 5638 5636 5635 5634 5633 5630 5628 5626 5623 5622 5620 5618 5616 5615 5613 5611 5609 5608 5606 5606 5604 5603 5603 5602 5601 5601 5601 5601 5601 5601 5600 5599 5599
5635 5635 5637 5636 5634 5634 5634 5633 5634 5632 5631 5629 5628 5628 5626 5624 5622 5620 5617 5615 5613 5612 5610 5608 5606 5604 5602 5600 5599 5597 5596 5595 5595 5594 5593 5593 5592 5592 5591 5591 5590 5590 5589
5627 5627 5627 5626 5626 5626 5626 5626 5626 5625 5623 5621 5620 5618 5617 5615 5614 5612 5610 5609 5607 5605 5604 5602 5600 5597 5596 5594 5592 5590 5589 5588 5588 5586 5585 5585 5584 5583 5583 5582 5580 5579 5579
5620 5620 5619 5618 5618 5618 5618 5618 5617 5616 5615 5614 5612 5610 5608 5606 5606 5604 5603 5601 5599 5597 5596 5594 5593 5591 5589 5587 5587 5586 5584 5583 5582 5581 5578 5577 5576 5575 5575 5573 5573 5571 5571
5613 5613 5612 5611 5610 5609 5609 5609 5608 5608 5607 5605 5604 5603 5600 5599 5599 5598 5595 5593 5591 5589 5587 5586 5585 5584 5582 5580 5579 5579 5578 5577 5576 5574 5573 5571 5569 5568 5567 5566 5565 5564 5563
5607 5606 5605 5604 5602 5601 5601 5600 5600 5599 5598 5597 5596 5595 5593 5592 5590 5589 5586 5584 5583 5581 5580 5578 5577 5576 5574 5573 5572 5572 5571 5571 5569 5568 5566 5564 5563 5561 5560 5559 5557 5556 5555
5600 5599 5598 5597 5595 5595 5594 5593 5592 5591 5590 5589 5588 5587 5585 5583 5582 5580 5578 5576 5574 5573 5572 5570 5569 5568 5568 5567 5566 5565 5564 5563 5562 5560 5559 5557 5556 5554 5553 5551 5550 5549 5548